#timestamp,LO_Frequency,Hit,StdDev 
1606626015.4,286047004.1,N
1606626035.2,286047006.0,Y
1606626055.1,286047001.8,P
1606626056.0,286047001.8,P
1606626075.8,286047003.2,P
1606626095.6,286047004.2,Y
1606626115.5,286047002.3,P
1606626135.3,286047004.1,P
1606626155.1,286047004.7,P
1606626175.9,286047004.7,Y
1606626195.7,286047002.8,P
1606626215.5,286047001.5,P
1606626235.4,286047004.2,P
1606626255.2,286047003.5,Y
1606626275.0,286047000.9,P
1606626275.9,286047000.9,N
1606626295.8,286047000.3,N
1606626315.6,286047002.5,N
1606626335.4,286047001.3,N
1606626355.3,286047003.3,Y
1606626375.1,286047003.9,P
1606626395.8,286047005.5,P
1606626415.7,286047007.2,P
1606626435.5,286047006.7,Y
1606626455.3,286047002.6,P
1606626475.2,286047002.3,N
1606626495.0,286047004.3,P
1606626495.9,286047004.3,Y
1606626515.8,286047000.0,P
1606626535.6,286047002.6,N
1606626555.4,286046999.7,N
1606626575.2,286047002.2,N
1606626595.1,286047000.0,N
1606626596.0,286047000.0,N
1606626615.8,286046999.8,N
1606626635.7,286047001.7,N
1606626655.5,286047002.1,N
1606626675.3,286047003.5,N
1606626695.1,286047002.9,N
1606626715.9,286047005.2,Y
1606626735.7,286047006.0,P
1606626755.5,286047005.6,N
1606626775.4,286047005.9,N
1606626795.2,286047004.8,N
1606626815.0,286047004.5,N
1606626815.9,286047004.5,N
1606626835.8,286047008.8,Y
1606626855.6,286047004.4,P
1606626875.4,286047003.4,P
1606626895.3,286047007.5,P
1606626915.1,286047004.7,Y
1606626935.9,286047000.3,P
1606626955.7,286047001.4,N
1606626975.5,286047003.6,N
1606626995.3,286047003.2,N
1606627015.2,286047003.3,N
1606627035.0,286047005.4,Y
1606627035.9,286047005.4,P
1606627055.8,286047001.9,N
1606627075.6,286047001.4,N
1606627095.4,286047003.3,N
1606627115.3,286047005.5,Y
1606627135.1,286047001.3,P
1606627136.0,286047001.3,N
1606627155.8,286047004.0,P
1606627175.7,286047004.0,Y
1606627195.5,286047002.8,P
1606627215.3,286047004.4,P
1606627235.2,286047005.9,P
1606627255.9,286047005.9,Y
1606627275.7,286046999.7,P
1606627295.6,286047002.2,N
1606627315.4,286047004.3,N
1606627335.2,286047003.1,N
1606627355.1,286047005.6,Y
1606627356.0,286047005.6,P
1606627375.8,286047002.5,N
1606627395.6,286047002.0,N
1606627415.5,286047003.5,N
1606627435.3,286047004.3,Y
1606627455.1,286047000.3,P
1606627475.9,286047000.5,N
1606627495.7,286047002.0,N
1606627515.5,286046999.8,N
1606627535.4,286047001.7,N
1606627555.2,286047001.4,N
1606627575.0,286047001.3,N
1606627575.9,286047001.3,N
1606627595.8,286047011.9,Y
1606627615.6,286047003.9,P
1606627635.4,286047005.3,P
1606627655.3,286047004.8,N
1606627675.1,286047004.6,N
1606627676.0,286047004.6,Y
1606627695.8,286047001.7,P
1606627715.7,286047004.2,P
1606627735.5,286047003.2,N
1606627755.3,286047004.9,Y
1606627775.2,286047002.9,P
1606627795.9,286047005.5,P
1606627815.7,286047005.6,P
1606627835.6,286047004.8,Y
1606627855.4,286046999.8,P
1606627875.2,286047002.5,N
1606627895.1,286047002.2,N
1606627896.0,286047002.2,N
1606627915.8,286047002.6,N
1606627935.6,286046999.7,N
1606627955.5,286047001.0,N
1606627975.3,286047002.6,N
1606627995.1,286047000.0,N
1606628015.9,286047002.0,N
1606628035.7,286047004.3,Y
1606628055.5,286047001.9,P
1606628075.4,286047002.1,P
1606628095.2,286047003.1,P
1606628115.0,286047003.1,Y
1606628115.9,286047003.1,P
1606628135.8,286047002.0,P
1606628155.6,286047002.7,P
1606628175.4,286047002.8,Y
1606628195.3,286046998.5,P
1606628215.1,286046998.6,N
1606628216.0,286046998.6,N
1606628235.8,286046998.1,N
1606628255.7,286047000.4,N
1606628275.5,286047001.1,N
1606628295.3,286046998.7,N
1606628315.2,286046998.7,N
1606628335.9,286046999.0,N
1606628355.7,286046999.0,N
1606628375.6,286046999.6,N
1606628395.4,286046997.2,N
1606628415.2,286046999.3,N
1606628435.1,286047000.0,N
1606628436.0,286047000.0,N
1606628455.8,286047002.5,N
1606628475.6,286047002.7,N
1606628495.5,286046998.3,N
1606628515.3,286046998.9,N
1606628535.1,286046997.1,N
1606628555.9,286046997.3,N
1606628575.7,286046997.2,N
1606628595.5,286046997.8,N
1606628615.4,286046997.7,N
1606628635.2,286046997.3,N
1606628655.0,286046998.0,N
1606628655.9,286046998.0,N
1606628675.7,286046997.1,N
1606628695.6,286046999.2,N
1606628715.4,286046997.3,N
1606628735.2,286046998.0,N
1606628755.1,286046995.3,Y
1606628756.0,286046995.3,P
1606628775.8,286046996.8,N
1606628795.7,286046998.0,N
1606628815.5,286046997.3,N
1606628835.3,286046997.1,N
1606628855.1,286046997.7,N
1606628875.9,286046997.5,N
1606628895.7,286046998.0,N
1606628915.5,286046997.4,N
1606628935.4,286046997.9,N
1606628955.2,286046995.2,Y
1606628975.0,286046999.6,P
1606628975.9,286046999.6,N
1606628995.8,286046997.7,N
1606629015.6,286046998.0,N
1606629035.5,286046994.9,Y
1606629055.3,286046996.9,P
1606629075.1,286046997.2,P
1606629095.8,286046997.5,P
1606629115.7,286046997.3,Y
1606629135.5,286047000.4,P
1606629155.3,286047000.6,N
1606629175.2,286047000.3,N
1606629195.0,286047001.2,N
1606629195.9,286047001.2,N
1606629215.7,286046998.1,N
1606629235.6,286046999.1,N
1606629255.4,286046996.8,N
1606629275.2,286046997.0,N
1606629295.1,286046994.9,Y
1606629296.0,286046994.9,P
1606629315.8,286046996.7,N
1606629335.6,286046996.6,N
1606629355.5,286046997.3,N
1606629375.3,286046996.7,N
1606629395.1,286046997.2,N
1606629415.9,286046995.3,Y
1606629435.7,286046997.2,P
1606629455.5,286046999.5,P
1606629475.4,286046999.4,N
1606629495.2,286046997.7,N
1606629515.0,286046995.0,Y
1606629515.9,286046995.0,P
1606629535.8,286046996.6,N
1606629555.6,286046996.5,N
1606629575.4,286046996.7,N
1606629595.3,286046998.0,N
